"TOA5","MOW","CPU:UNC_MeetingWaters","DataHourly"
"TIMESTAMP","SondeTempC","SpCond","DOSat","DOmg","pH","Turb","BattVolt_Min"
"TS","","","","","","",""
"","Smp","Smp","Smp","Smp","Smp","Smp","Min"
"2002-06-01 00:00:00",21.4400005341,0.0010000000475,82.5999984741,7.30000019073,7.73000001907,2.0,12.6000003815
"2002-06-01 01:00:00",21.3999996185,0.0010000000475,83.3000030518,7.36999988556,7.63000011444,2.09999990463,12.5799999237
"2002-06-01 02:00:00",21.1499996185,0.0,83.8000030518,7.44999980927,7.65999984741,2.0,12.5500001907
"2002-06-01 03:00:00",21.1000003815,0.0010000000475,82.8000030518,7.36999988556,7.73000001907,3.59999990463,12.529999733
"2002-06-01 04:00:00",20.9400005341,0.0,82.5999984741,7.36999988556,7.73000001907,2.0,12.5200004578
"2002-06-01 05:00:00",20.7800006866,0.0,83.5,7.46999979019,7.69000005722,2.29999995232,12.5100002289
"2002-06-01 06:00:00",20.7700004578,0.0,83.9000015259,7.51000022888,7.65999984741,1.89999997616,12.5
"2002-06-01 07:00:00",20.7900009155,0.0010000000475,84.5,7.57000017166,7.76999998093,1.89999997616,12.4899997711
"2002-06-01 08:00:00",20.9300003052,0.0010000000475,85.6999969482,7.65000009537,7.48000001907,1.79999995232,12.529999733
"2002-06-01 09:00:00",21.1399993896,0.0,88.1999969482,7.84000015259,7.69000005722,1.89999997616,12.5900001526
"2002-06-01 10:00:00",21.2000007629,0.0010000000475,91.0,8.07999992371,7.38999986649,2.29999995232,13.1400003433
"2002-06-01 11:00:00",22.0400009155,0.0,95.9000015259,8.38000011444,7.44000005722,1.89999997616,13.0699996948
"2002-06-01 12:00:00",23.0499992371,0.0,98.8000030518,8.47000026703,7.48000001907,2.29999995232,13.0
"2002-06-01 13:00:00",24.1399993896,0.0,101.599998474,8.52999973297,7.67000007629,2.0,12.9499998093
"2002-06-01 14:00:00",24.4699993134,0.0,99.3000030518,8.27999973297,7.67999982834,1.79999995232,12.9200000763
"2002-06-01 15:00:00",24.6200008392,0.0,95.1999969482,7.92000007629,7.57999992371,1.89999997616,12.8800001144
"2002-06-01 16:00:00",25.0300006866,0.0,92.4000015259,7.63999986649,7.73000001907,2.0,12.8999996185
"2002-06-01 17:00:00",24.6700000763,0.0,86.0,7.15000009537,7.51999998093,1.70000004768,12.7600002289
"2002-06-01 18:00:00",24.5499992371,0.228000000119,78.6999969482,6.55000019073,7.23999977112,45.2999992371,12.7100000381
"2002-06-01 19:00:00",24.0400009155,0.140000000596,80.3000030518,6.76000022888,6.84999990463,126.5,12.6599998474
"2002-06-01 20:00:00",23.8400001526,0.125,76.1999969482,6.42999982834,6.76000022888,55.0999984741,12.6400003433
"2002-06-01 21:00:00",23.4899997711,0.12800000608,71.8000030518,6.09999990463,6.65999984741,37.0,12.6099996567
"2002-06-01 22:00:00",23.0200004578,0.123000003397,65.9000015259,5.65000009537,6.57999992371,27.7000007629,12.6000003815
"2002-06-01 23:00:00",22.6599998474,0.0780000016093,70.5999984741,6.09999990463,6.59000015259,17.3999996185,12.5799999237
"2002-06-02 00:00:00",22.3500003815,0.0799999982119,70.5,6.11999988556,6.63000011444,14.3999996185,12.5500001907
"2002-06-02 01:00:00",22.0799999237,0.0839999988675,71.3000030518,6.21999979019,6.65999984741,12.3000001907,12.5200004578
"2002-06-02 02:00:00",21.8099994659,0.0010000000475,71.0,6.23000001907,6.67999982834,11.1000003815,12.4899997711
"2002-06-02 03:00:00",21.5499992371,0.0010000000475,72.5999984741,6.40000009537,6.73000001907,9.69999980927,12.4899997711
"2002-06-02 04:00:00",21.2999992371,0.0010000000475,73.5999984741,6.51999998093,6.76999998093,7.30000019073,12.4799995422
"2002-06-02 05:00:00",21.0200004578,0.0010000000475,73.8000030518,6.57999992371,6.82000017166,6.69999980927,12.470000267
"2002-06-02 06:00:00",20.8999996185,0.0010000000475,74.8000030518,6.69000005722,6.86000013351,5.90000009537,12.470000267
"2002-06-02 07:00:00",20.6800003052,0.0010000000475,76.3000030518,6.84000015259,6.90999984741,5.0,12.470000267
"2002-06-02 08:00:00",20.75,0.0010000000475,79.0999984741,7.07999992371,6.96000003815,5.0,12.4799995422
"2002-06-02 09:00:00",20.8899993896,0.0010000000475,81.0999984741,7.23999977112,7.01000022888,3.79999995232,12.5399999619
"2002-06-02 10:00:00",21.2900009155,0.0010000000475,84.6999969482,7.51000022888,7.05000019073,3.70000004768,13.1899995804
"2002-06-02 11:00:00",21.7900009155,0.0010000000475,87.6999969482,7.69999980927,7.11000013351,3.79999995232,13.1400003433
"2002-06-02 12:00:00",23.0,0.0010000000475,92.5999984741,7.94999980927,7.13999986649,3.20000004768,13.0500001907
"2002-06-02 13:00:00",23.8700008392,0.0010000000475,94.1999969482,7.94999980927,7.21000003815,2.59999990463,12.9899997711
"2002-06-02 14:00:00",24.1499996185,0.0010000000475,87.6999969482,7.36000013351,7.19999980927,2.20000004768,12.9499998093
"2002-06-02 15:00:00",24.4400005341,0.0010000000475,77.5999984741,6.48000001907,7.23999977112,5.59999990463,12.9300003052
"2002-06-02 16:00:00",24.5799999237,0.0010000000475,90.0999984741,7.5,7.26000022888,1.89999997616,12.8800001144
"2002-06-02 17:00:00",24.5900001526,0.0,87.0,7.23999977112,7.25,5.5,12.8400001526
"2002-06-02 18:00:00",24.5300006866,0.0,84.5,7.03999996185,7.25,1.5,12.7700004578
"2002-06-02 19:00:00",24.1599998474,0.0,83.6999969482,7.03000020981,7.23999977112,1.29999995232,12.7399997711
"2002-06-02 20:00:00",23.7700004578,0.0,80.4000015259,6.80000019073,7.19000005722,1.5,12.6899995804
"2002-06-02 21:00:00",23.4899997711,0.0,80.6999969482,6.86000013351,7.19999980927,1.70000004768,12.6800003052
"2002-06-02 22:00:00",23.2800006866,0.0,78.4000015259,6.69000005722,7.21999979019,1.60000002384,12.6499996185
"2002-06-02 23:00:00",23.0200004578,0.0,79.0999984741,6.78999996185,7.25,1.10000002384,12.6300001144
"2002-06-03 00:00:00",22.8299999237,0.0,80.0,6.88000011444,7.17999982834,1.39999997616,12.6199998856
"2002-06-03 01:00:00",22.7099990845,0.0,81.0,6.98999977112,7.15999984741,1.60000002384,12.6099996567
"2002-06-03 02:00:00",22.5100002289,0.0,81.5,7.05999994278,7.17999982834,1.60000002384,12.5900001526
"2002-06-03 03:00:00",22.2099990845,0.0,82.1999969482,7.15999984741,7.21999979019,1.60000002384,12.5699996948
"2002-06-03 04:00:00",21.8799991608,0.0,83.0,7.26999998093,7.17999982834,1.70000004768,12.5500001907
"2002-06-03 05:00:00",21.5900001526,0.0,83.3000030518,7.34000015259,7.17999982834,1.79999995232,12.5100002289
"2002-06-03 06:00:00",20.7399997711,0.0,82.6999969482,7.40999984741,7.19000005722,2.09999990463,12.5
"2002-06-03 07:00:00",19.3700008392,0.0,84.1999969482,7.75,7.59000015259,1.89999997616,12.4799995422
"2002-06-03 08:00:00",19.75,0.0,85.4000015259,7.80000019073,7.71000003815,1.89999997616,12.4799995422
"2002-06-03 09:00:00",19.7600002289,0.0,87.5,8.0,7.71999979019,2.09999990463,12.5399999619
"2002-06-03 10:00:00",19.8299999237,0.0,89.6999969482,8.18999958038,7.63000011444,1.70000004768,13.2100000381
"2002-06-03 11:00:00",21.3199996948,0.0,92.4000015259,8.18999958038,7.40000009537,2.09999990463,13.1199998856
"2002-06-03 12:00:00",22.0,0.0,96.1999969482,8.40999984741,7.38000011444,1.89999997616,13.0600004196
"2002-06-03 13:00:00",22.6000003815,0.0,85.0,7.34999990463,7.42000007629,2.20000004768,13.029999733
"2002-06-03 14:00:00",22.9899997711,0.0,88.8000030518,7.61999988556,7.40000009537,1.79999995232,13.0
"2002-06-03 15:00:00",23.2999992371,0.0,93.8000030518,8.01000022888,7.57000017166,1.89999997616,12.970000267
"2002-06-03 16:00:00",23.4500007629,0.0,91.5999984741,7.78999996185,7.59000015259,2.70000004768,12.9499998093
"2002-06-03 17:00:00",22.9200000763,0.0,84.5999984741,7.26999998093,7.90999984741,3.20000004768,12.8400001526
"2002-06-03 18:00:00",22.9799995422,0.0,79.5999984741,6.84000015259,7.80999994278,2.5,12.779999733
"2002-06-03 19:00:00",23.0799999237,0.0,76.9000015259,6.59000015259,7.61000013351,2.5,12.7299995422
"2002-06-03 20:00:00",22.3700008392,0.0,97.5,8.46000003815,7.32000017166,1.70000004768,12.6899995804
"2002-06-03 21:00:00",21.7700004578,0.0,82.5999984741,7.25,7.19999980927,1.89999997616,12.6700000763
"2002-06-03 22:00:00",21.5200004578,0.0,81.0999984741,7.15000009537,7.34999990463,1.20000004768,12.6499996185
"2002-06-03 23:00:00",20.7999992371,0.0,86.5,7.75,7.28999996185,1.39999997616,12.6300001144
"2002-06-04 00:00:00",20.2999992371,0.0,82.4000015259,7.44999980927,7.30999994278,1.20000004768,12.6199998856
"2002-06-04 01:00:00",20.1599998474,0.0,85.8000030518,7.78000020981,7.26999998093,1.29999995232,12.5900001526
"2002-06-04 02:00:00",20.2299995422,0.0,82.9000015259,7.51000022888,7.36000013351,1.5,12.5699996948
"2002-06-04 03:00:00",19.8799991608,0.0,86.0,7.84000015259,7.32999992371,1.5,12.5600004196
"2002-06-04 04:00:00",19.6100006104,0.0,85.6999969482,7.84999990463,7.40000009537,1.29999995232,12.5399999619
"2002-06-04 05:00:00",19.5,0.0,85.4000015259,7.84999990463,7.71000003815,1.20000004768,12.5200004578
"2002-06-04 06:00:00",19.7600002289,0.0,86.1999969482,7.88000011444,7.86999988556,1.29999995232,12.5
"2002-06-04 07:00:00",19.9400005341,0.0,86.9000015259,7.90999984741,7.5,1.5,12.4799995422
"2002-06-04 08:00:00",19.9099998474,0.0,88.8000030518,8.09000015259,7.76000022888,1.5,12.4899997711
"2002-06-04 09:00:00",20.3700008392,0.0,89.8000030518,8.10999965668,7.53000020981,1.60000002384,12.5799999237
"2002-06-04 10:00:00",20.9099998474,0.0,93.3000030518,8.32999992371,7.75,1.39999997616,13.1899995804
"2002-06-04 11:00:00",22.3299999237,0.0,97.9000015259,8.51000022888,7.61000013351,1.20000004768,13.1000003815
"2002-06-04 12:00:00",23.4599990845,0.0,106.599998474,9.06000041962,7.17000007629,1.20000004768,13.0399999619
"2002-06-04 13:00:00",23.4500007629,0.0,101.400001526,8.61999988556,7.61000013351,1.29999995232,12.9899997711
"2002-06-04 14:00:00",24.2299995422,0.0,100.199996948,8.39999961853,7.65000009537,1.20000004768,12.9499998093
"2002-06-04 15:00:00",26.0599994659,0.0,98.9000015259,8.01000022888,7.25,1.5,12.8999996185
"2002-06-04 16:00:00",25.9500007629,0.0,112.400001526,9.13000011444,7.03999996185,1.20000004768,12.8900003433
"2002-06-04 17:00:00",25.3199996948,0.0,89.6999969482,7.36999988556,6.94999980927,1.20000004768,12.8000001907
"2002-06-04 18:00:00",24.3899993896,0.0,85.9000015259,7.17999982834,6.88000011444,1.20000004768,12.779999733
"2002-06-04 19:00:00",23.9899997711,0.0,84.8000030518,7.13999986649,7.44000005722,1.20000004768,12.720000267
"2002-06-04 20:00:00",23.9899997711,0.0,83.6999969482,7.05000019073,7.69999980927,1.10000002384,12.6899995804
"2002-06-04 21:00:00",23.6700000763,0.0,82.6999969482,7.01000022888,7.59000015259,1.5,12.6800003052
"2002-06-04 22:00:00",23.4200000763,0.0,82.3000030518,7.0,7.71000003815,1.60000002384,12.6499996185
"2002-06-04 23:00:00",23.2399997711,0.0,82.1999969482,7.01999998093,7.42999982834,2.20000004768,12.6499996185
"2002-06-05 00:00:00",22.7999992371,0.0,83.3000030518,7.17000007629,7.71000003815,1.60000002384,12.6300001144
"2002-06-05 01:00:00",22.6399993896,0.0,83.8000030518,7.23999977112,7.73000001907,2.0,12.6099996567
"2002-06-05 02:00:00",22.4500007629,0.0,83.3000030518,7.23000001907,7.75,1.5,12.5900001526
"2002-06-05 03:00:00",22.2999992371,0.0,84.3000030518,7.32999992371,7.73999977112,1.5,12.5699996948
"2002-06-05 04:00:00",22.0400009155,0.0,85.6999969482,7.48000001907,7.69999980927,1.5,12.5399999619
"2002-06-05 05:00:00",21.7999992371,0.0,86.3000030518,7.57999992371,7.65999984741,1.39999997616,12.5200004578
"2002-06-05 06:00:00",21.4200000763,0.0,85.8000030518,7.57999992371,7.73999977112,3.70000004768,12.5
"2002-06-05 07:00:00",21.5499992371,0.0,86.8000030518,7.65999984741,7.71999979019,2.0,12.4899997711
"2002-06-05 08:00:00",21.6599998474,0.0,88.5,7.78999996185,7.73999977112,1.60000002384,12.4899997711
"2002-06-05 09:00:00",21.7999992371,0.0,89.8000030518,7.88000011444,7.44999980927,1.79999995232,12.5500001907
"2002-06-05 10:00:00",22.2600002289,0.0,92.5999984741,8.06000041962,7.46000003815,1.5,13.1300001144
"2002-06-05 11:00:00",22.9699993134,0.0,97.6999969482,8.39000034332,7.53000020981,1.5,13.0500001907
"2002-06-05 12:00:00",23.8799991608,0.0,98.6999969482,8.31999969482,7.51000022888,1.39999997616,12.9899997711
"2002-06-05 13:00:00",24.6000003815,0.0,98.8000030518,8.22999954224,7.5,1.70000004768,12.9399995804
"2002-06-05 14:00:00",25.1599998474,0.0,97.8000030518,8.05000019073,7.5,1.79999995232,12.9200000763
"2002-06-05 15:00:00",25.6499996185,0.0,99.6999969482,8.14000034332,7.67000007629,1.60000002384,12.8800001144
"2002-06-05 16:00:00",25.2900009155,0.0,92.0999984741,7.57000017166,7.48000001907,2.20000004768,12.8699998856
"2002-06-05 17:00:00",25.0900001526,0.0,88.1999969482,7.28000020981,7.36000013351,2.5,12.8199996948
"2002-06-05 18:00:00",24.8500003815,0.0,86.1999969482,7.13999986649,7.30000019073,1.89999997616,12.7700004578
"2002-06-05 19:00:00",24.7000007629,0.0,83.6999969482,6.96000003815,7.26000022888,1.79999995232,12.720000267
"2002-06-05 20:00:00",24.6399993896,0.0,80.8000030518,6.71999979019,7.36999988556,1.70000004768,12.6899995804
"2002-06-05 21:00:00",24.5300006866,0.0,79.3000030518,6.61000013351,7.46000003815,2.29999995232,12.6599998474
"2002-06-05 22:00:00",24.3299999237,0.0,79.5999984741,6.65999984741,7.51000022888,2.0,12.6300001144
"2002-06-05 23:00:00",24.2399997711,0.0,80.6999969482,6.76999998093,7.55000019073,1.89999997616,12.6300001144
"2002-06-06 00:00:00",24.0400009155,0.0,82.0,6.90000009537,7.55999994278,2.20000004768,12.6099996567
"2002-06-06 01:00:00",23.7800006866,0.0,82.8000030518,7.0,7.55999994278,2.09999990463,12.5900001526
"2002-06-06 02:00:00",23.5799999237,0.0,83.3000030518,7.07000017166,7.55999994278,1.5,12.5699996948
"2002-06-06 03:00:00",23.3700008392,0.0,83.4000015259,7.09999990463,7.53999996185,1.5,12.5399999619
"2002-06-06 04:00:00",23.1700000763,0.0,83.3000030518,7.13000011444,7.53999996185,1.5,12.5100002289
"2002-06-06 05:00:00",23.0,0.0,84.1999969482,7.21999979019,7.55000019073,2.09999990463,12.4899997711
"2002-06-06 06:00:00",22.7600002289,0.0,84.5999984741,7.28999996185,7.55999994278,1.89999997616,12.4799995422
"2002-06-06 07:00:00",22.6499996185,0.0,84.9000015259,7.32999992371,7.55000019073,1.79999995232,12.470000267
"2002-06-06 08:00:00",22.6900005341,0.0,86.5,7.46999979019,7.57000017166,2.0,12.4899997711
"2002-06-06 09:00:00",22.75,0.0,88.9000015259,7.65999984741,7.59000015259,1.70000004768,12.5699996948
"2002-06-06 10:00:00",23.2000007629,0.0,91.6999969482,7.82999992371,7.59999990463,1.79999995232,13.1199998856
"2002-06-06 11:00:00",24.0799999237,0.0,97.5999984741,8.21000003815,7.71999979019,1.5,13.0399999619
"2002-06-06 12:00:00",24.6900005341,0.0,97.8000030518,8.13000011444,7.71999979019,1.79999995232,12.970000267
"2002-06-06 13:00:00",25.25,0.0,99.0999984741,8.14999961853,7.69999980927,1.60000002384,12.9399995804
"2002-06-06 14:00:00",25.5900001526,0.0,99.5999984741,8.14000034332,7.73000001907,1.79999995232,12.9099998474
"2002-06-06 15:00:00",25.8600006104,0.0,95.1999969482,7.73999977112,7.65000009537,7.0,12.8699998856
"2002-06-06 16:00:00",25.7999992371,0.0,93.0999984741,7.59000015259,7.59999990463,2.0,12.7899999619
"2002-06-06 17:00:00",25.6200008392,0.0,90.5999984741,7.40000009537,7.55999994278,1.79999995232,12.8000001907
"2002-06-06 18:00:00",25.2399997711,0.0,87.0999984741,7.17000007629,7.51000022888,2.09999990463,12.779999733
"2002-06-06 19:00:00",25.1599998474,0.0,84.1999969482,6.94000005722,7.44000005722,2.0,12.7100000381
"2002-06-06 20:00:00",24.5,0.0,80.6999969482,6.73000001907,7.34000015259,2.5,12.6700000763
"2002-06-06 21:00:00",24.1800003052,0.0,80.1999969482,6.73000001907,7.32999992371,2.20000004768,12.6499996185
"2002-06-06 22:00:00",23.9799995422,0.0,79.6999969482,6.71000003815,7.30000019073,3.59999990463,12.6199998856
"2002-06-06 23:00:00",24.7000007629,0.400999993086,71.6999969482,5.94999980927,7.19999980927,41.2999992371,12.6000003815
"2002-06-07 00:00:00",23.5400009155,0.202000007033,75.1999969482,6.38000011444,7.0,27.6000003815,12.5799999237
"2002-06-07 01:00:00",23.0499992371,0.192000001669,68.3000030518,5.84999990463,6.92000007629,24.2999992371,12.5500001907
"2002-06-07 02:00:00",22.75,0.137999996543,64.5999984741,5.57000017166,6.84999990463,17.8999996185,12.529999733
"2002-06-07 03:00:00",22.6200008392,0.11400000006,65.5999984741,5.67000007629,6.82999992371,13.6999998093,12.5100002289
"2002-06-07 04:00:00",22.4799995422,0.122000001371,65.0999984741,5.63999986649,6.90000009537,9.30000019073,12.4899997711
"2002-06-07 05:00:00",22.3099994659,0.00300000002608,65.8000030518,5.71999979019,6.98000001907,7.59999990463,12.470000267
"2002-06-07 06:00:00",22.0799999237,0.00600000005215,66.8000030518,5.82999992371,7.01999998093,6.69999980927,12.4600000381
"2002-06-07 07:00:00",21.8400001526,0.00200000009499,68.8000030518,6.03999996185,7.03000020981,5.19999980927,12.4499998093
"2002-06-07 08:00:00",21.7600002289,0.00200000009499,71.8000030518,6.30000019073,7.05999994278,4.30000019073,12.470000267
"2002-06-07 09:00:00",21.8299999237,0.168999999762,75.5,6.61999988556,7.09999990463,4.30000019073,12.6499996185
"2002-06-07 10:00:00",21.9300003052,0.175999999046,79.6999969482,6.98000001907,7.15000009537,3.40000009537,13.0
"2002-06-07 11:00:00",22.2099990845,0.186000004411,83.6999969482,7.28000020981,7.21999979019,3.09999990463,13.1700000763
"2002-06-07 12:00:00",22.8999996185,0.229000002146,84.5,7.26000022888,7.28999996185,3.0,13.1499996185
"2002-06-07 13:00:00",23.4899997711,0.223000004888,82.9000015259,7.03999996185,7.32999992371,3.20000004768,13.1300001144
"2002-06-07 14:00:00",23.8899993896,0.00400000018999,78.9000015259,6.65000009537,7.32999992371,3.5,13.0900001526
"2002-06-07 15:00:00",23.5499992371,0.00200000009499,67.0999984741,5.69000005722,7.28000020981,3.5,12.8599996567
"2002-06-07 16:00:00",23.0799999237,0.00200000009499,59.2000007629,5.07000017166,7.65999984741,3.59999990463,13.0699996948
"2002-06-07 17:00:00",23.5,0.00200000009499,59.2000007629,5.03000020981,7.23999977112,3.0,12.970000267
"2002-06-07 18:00:00",22.6900005341,0.00200000009499,69.0999984741,5.96000003815,7.19000005722,2.09999990463,12.8299999237
"2002-06-07 19:00:00",21.2800006866,0.0010000000475,70.1999969482,6.21999979019,7.67000007629,1.5,12.7399997711
"2002-06-07 20:00:00",20.4200000763,0.0010000000475,72.8000030518,6.57000017166,7.71999979019,1.60000002384,12.6999998093
"2002-06-07 21:00:00",19.8899993896,0.0010000000475,72.9000015259,6.63999986649,7.69999980927,1.39999997616,12.6599998474
"2002-06-07 22:00:00",18.8799991608,0.0010000000475,99.8000030518,9.27999973297,7.55999994278,1.10000002384,12.6499996185
"2002-06-07 23:00:00",19.1599998474,0.0010000000475,99.0999984741,9.17000007629,7.53999996185,1.60000002384,12.6400003433
"2002-06-08 00:00:00",19.2099990845,0.0010000000475,78.4000015259,7.23999977112,7.76000022888,1.10000002384,12.6199998856
"2002-06-08 01:00:00",18.0400009155,0.0010000000475,78.9000015259,7.46000003815,7.73999977112,1.10000002384,12.6000003815
"2002-06-08 02:00:00",17.3999996185,0.0010000000475,82.0,7.86000013351,7.67000007629,1.20000004768,12.5799999237
"2002-06-08 03:00:00",16.7299995422,0.0010000000475,86.6999969482,8.43000030518,7.67000007629,1.20000004768,12.5699996948
"2002-06-08 04:00:00",16.4400005341,0.0010000000475,82.6999969482,8.09000015259,7.65999984741,1.10000002384,12.5399999619
"2002-06-08 05:00:00",15.279999733,0.0010000000475,100.300003052,10.0600004196,7.59999990463,1.0,12.529999733
"2002-06-08 06:00:00",14.5,0.00200000009499,100.900001526,10.2899999619,7.61000013351,1.10000002384,12.5
"2002-06-08 07:00:00",15.4200000763,0.00200000009499,100.400001526,10.029999733,7.63000011444,1.10000002384,12.4899997711
"2002-06-08 08:00:00",15.7399997711,0.00200000009499,100.699996948,9.98999977112,7.61000013351,1.0,12.4799995422
"2002-06-08 09:00:00",16.8500003815,0.00200000009499,100.300003052,9.72999954224,7.61000013351,1.60000002384,12.6999998093
"2002-06-08 10:00:00",16.5799999237,0.00200000009499,100.800003052,9.82999992371,7.5,1.0,12.9399995804
"2002-06-08 11:00:00",18.3899993896,0.0010000000475,100.300003052,9.42000007629,7.34000015259,1.0,13.2399997711
"2002-06-08 12:00:00",19.6800003052,0.0,100.0,9.15999984741,6.63000011444,1.10000002384,13.1800003052
"2002-06-08 13:00:00",20.8899993896,0.0,99.5999984741,8.89999961853,6.51000022888,1.29999995232,13.1400003433
"2002-06-08 14:00:00",22.0900001526,0.0,99.1999969482,8.65999984741,6.34999990463,1.10000002384,13.1099996567
"2002-06-08 15:00:00",22.7800006866,0.0,99.8000030518,8.60000038147,6.09000015259,1.10000002384,13.0699996948
"2002-06-08 16:00:00",22.6100006104,0.0,98.8000030518,8.53999996185,6.21999979019,1.10000002384,13.029999733
"2002-06-08 17:00:00",22.1299991608,0.0,99.0,8.64000034332,6.23999977112,1.10000002384,12.8400001526
"2002-06-08 18:00:00",21.7999992371,0.0,98.8000030518,8.67000007629,6.28000020981,0.899999976158,12.779999733
"2002-06-08 19:00:00",21.4899997711,0.0,99.0,8.73999977112,6.38999986649,1.0,12.7399997711
"2002-06-08 20:00:00",20.3400001526,0.0,99.5,8.98999977112,6.28000020981,1.0,12.7100000381
"2002-06-08 21:00:00",19.1299991608,0.0,99.9000015259,9.25,6.34000015259,1.29999995232,12.6800003052
"2002-06-08 22:00:00",18.3700008392,0.0,99.9000015259,9.39000034332,6.48999977112,2.5,12.6599998474
"2002-06-08 23:00:00",17.5,0.0,100.300003052,9.60000038147,6.5,3.90000009537,12.6300001144
"2002-06-09 00:00:00",16.9500007629,0.0,100.199996948,9.68999958038,6.59000015259,1.5,12.6099996567
"2002-06-09 01:00:00",15.9499998093,0.0,100.599998474,9.93999958038,6.59000015259,1.89999997616,12.5900001526
"2002-06-09 02:00:00",14.9399995804,0.0,101.0,10.1999998093,6.61999988556,1.39999997616,12.5500001907
"2002-06-09 03:00:00",15.2899999619,0.0,100.099998474,10.029999733,6.71999979019,1.70000004768,12.529999733
"2002-06-09 04:00:00",14.8800001144,0.0,99.8000030518,10.0900001526,6.69999980927,2.09999990463,12.5100002289
"2002-06-09 05:00:00",14.7299995422,0.0,100.099998474,10.1599998474,6.78999996185,2.29999995232,12.4899997711
"2002-06-09 06:00:00",14.6199998856,0.0,99.5,10.1199998856,6.88000011444,2.59999990463,12.470000267
"2002-06-09 07:00:00",14.3299999237,0.0,99.4000015259,10.1700000763,6.86999988556,2.79999995232,12.4399995804
"2002-06-09 08:00:00",13.5799999237,0.0,100.599998474,10.470000267,6.84999990463,2.40000009537,12.4499998093
"2002-06-09 09:00:00",15.1999998093,0.0,100.099998474,10.0600004196,6.78999996185,2.09999990463,12.5
"2002-06-09 10:00:00",16.9799995422,0.0,99.5999984741,9.63000011444,6.53000020981,1.79999995232,13.3900003433
"2002-06-09 11:00:00",19.6900005341,0.0,98.9000015259,9.05000019073,6.32999992371,1.79999995232,13.2299995422
"2002-06-09 12:00:00",21.6100006104,0.0,99.9000015259,8.80000019073,6.15000009537,1.39999997616,13.1400003433
"2002-06-09 13:00:00",22.2900009155,0.0,98.0999984741,8.52999973297,6.15000009537,1.39999997616,13.0699996948
"2002-06-09 14:00:00",23.3700008392,0.0,97.9000015259,8.34000015259,6.07999992371,1.5,13.0399999619
"2002-06-09 15:00:00",23.7099990845,0.0,98.5999984741,8.34000015259,5.78000020981,1.39999997616,13.0
"2002-06-09 16:00:00",24.0400009155,0.0,97.0999984741,8.17000007629,5.67999982834,1.39999997616,12.9600000381
"2002-06-09 17:00:00",22.8899993896,0.0,98.0999984741,8.43000030518,6.05000019073,1.79999995232,12.8299999237
"2002-06-09 18:00:00",22.3500003815,0.0,98.1999969482,8.52999973297,6.23000001907,1.60000002384,12.7899999619
"2002-06-09 19:00:00",21.7700004578,0.0,87.3000030518,7.67000007629,6.36000013351,1.20000004768,12.7399997711
"2002-06-09 20:00:00",21.0400009155,0.0,88.4000015259,7.86999988556,6.40999984741,1.70000004768,12.720000267
"2002-06-09 21:00:00",19.8899993896,0.0,97.5999984741,8.89999961853,6.34000015259,1.70000004768,12.6899995804
"2002-06-09 22:00:00",19.3299999237,0.0,98.5,9.07999992371,6.46000003815,1.89999997616,12.6599998474
"2002-06-09 23:00:00",18.2000007629,0.0,99.1999969482,9.35000038147,6.42999982834,2.09999990463,12.6300001144
"2002-06-10 00:00:00",17.5,0.0,99.5,9.52000045776,6.48999977112,1.79999995232,12.6199998856
"2002-06-10 01:00:00",16.9899997711,0.0,99.5999984741,9.63000011444,6.5,2.0,12.5799999237